Powrót do katalogu

FLOCK 4Q 36

AktywnyNaukaPO
NORAD 58274·PAYLOAD·🇺🇸 United States

Wystrzelony Nov 11, 2023 z Vandenberg Space Force Base

Loading…

Następne Przeloty (najbliższe 24 godziny)

TLE

ŚwieżeSource: Space-Track

Epoka: Sep 14, 2026, 05:09 UTC

1 58274U 23174U   26257.21483124  .00322684  00000-0  14195-2 0  9997
2 58274  97.3762 354.2550 0005832 223.5742 136.5068 15.83710929159783

Śledź FLOCK 4Q 36 w czasie rzeczywistym z AllMySat

Download on the App Store